Breckenridge, TX

3:44 PM CDT on August 19, 2017 (GMT -0500)
Stephens County

Weather History for KBKD - May, 2014

Change the Weather History Date:

Friday, May 9, 2014

  Actual Average (KMWL) Record (KMWL)
Temperature  
Mean Temperature 76 °F -  
Max Temperature 91 °F 81 °F 97 °F (2006)
Min Temperature 61 °F 59 °F 55 °F (1997)
Cooling Degree Days 10    
Growing Degree Days 26 (Base 50)    
Moisture  
Dew Point 44 °F    
Average Humidity 41    
Maximum Humidity 96    
Minimum Humidity 10    
Precipitation  
Precipitation 0.00 in - - ()
Sea Level Pressure  
Sea Level Pressure 29.87 in    
Wind  
Wind Speed 7 mph (WSW)    
Max Wind Speed 13 mph    
Max Gust Speed 20 mph    
Visibility 10 miles    
Events      
Averages and records for this station are not official NWS values.
T = Trace of Precipitation, MM = Missing Value Source: NWS Daily Summary

Daily Weather History Graph

Daily Weather History Graph

Search for Another Location

Airport or City:

Trip Planner

Search our weather history database for the weather conditions in past years. The results will help you decide how hot, cold, wet, or windy it might be!

Date:

Astronomy

May. 09, 2014 Rise Set
Actual Time 6:41 AM CDT 8:23 PM CDT
Civil Twilight 6:14 AM CDT 8:49 PM CDT
Nautical Twilight 5:42 AM CDT 9:22 PM CDT
Astronomical Twilight 5:08 AM CDT 9:56 PM CDT
Moon 3:38 PM CDT (5/9) 3:26 AM CDT (5/9)
Length of Visible Light 14h 35m
Length of Day
13h 41m
Waxing Gibbous, 74% of the Moon is Illuminated
May 9
Waxing Gibbous
May 14
Full
May 21
Last Quarter
May 28
New
Jun 5
First Quarter

Hourly Weather History & Observations

Time (CDT) Temp. Dew Point Humidity Pressure Visibility Wind Dir Wind Speed Gust Speed Precip Events Conditions
12:10 AM 72.3 °F 64.4 °F 76% 29.83 in 10.0 mi SSE 9.2 mph - N/A   Clear
12:35 AM 72.0 °F 64.4 °F 77% 29.83 in 10.0 mi South 10.4 mph - N/A   Clear
12:55 AM 71.4 °F 64.4 °F 78% 29.84 in 10.0 mi SSW 9.2 mph - N/A   Clear
1:15 AM 71.8 °F 64.9 °F 79% 29.85 in 10.0 mi SSW 12.7 mph 19.6 mph N/A   Clear
1:35 AM 71.6 °F 64.9 °F 79% 29.85 in 10.0 mi SSW 9.2 mph 16.1 mph N/A   Clear
1:55 AM 70.9 °F 64.9 °F 81% 29.85 in 10.0 mi SW 6.9 mph - N/A   Clear
2:15 AM 70.3 °F 65.3 °F 84% 29.85 in 10.0 mi SSW 4.6 mph - N/A   Clear
2:35 AM 69.8 °F 66.7 °F 90% 29.86 in 10.0 mi WSW 3.5 mph - N/A   Clear
2:55 AM 68.5 °F 66.4 °F 93% 29.87 in 7.0 mi West 4.6 mph - N/A   Clear
3:15 AM 67.8 °F 66.0 °F 94% 29.87 in 7.0 mi WSW 5.8 mph - N/A   Clear
3:35 AM 67.1 °F 65.5 °F 95% 29.88 in 7.0 mi WSW 8.1 mph - N/A   Clear
3:55 AM 67.1 °F 65.5 °F 95% 29.88 in 7.0 mi West 6.9 mph - N/A   Clear
4:15 AM 66.4 °F 65.1 °F 96% 29.87 in 7.0 mi West 6.9 mph - N/A   Clear
4:35 AM 65.7 °F 64.6 °F 96% 29.88 in 7.0 mi West 8.1 mph - N/A   Clear
4:55 AM 64.8 °F 62.6 °F 93% 29.89 in 10.0 mi SW 6.9 mph - N/A   Clear
5:15 AM 64.8 °F 62.4 °F 92% 29.90 in 10.0 mi WSW 8.1 mph - N/A   Clear
5:30 AM 64.2 °F 61.5 °F 91% 29.91 in 10.0 mi West 8.1 mph - N/A   Clear
5:55 AM 63.0 °F 59.4 °F 88% 29.91 in 10.0 mi West 6.9 mph - N/A   Clear
6:15 AM 62.6 °F 57.0 °F 82% 29.91 in 10.0 mi West 4.6 mph - N/A   Clear
6:35 AM 61.5 °F 53.8 °F 76% 29.91 in 10.0 mi WNW 5.8 mph - N/A   Clear
6:55 AM 61.9 °F 47.7 °F 60% 29.92 in 10.0 mi West 5.8 mph - N/A   Clear
7:15 AM 61.2 °F 48.7 °F 64% 29.93 in 10.0 mi SW 3.5 mph - N/A   Clear
7:35 AM 62.2 °F 48.4 °F 60% 29.93 in 10.0 mi West 3.5 mph - N/A   Clear
7:55 AM 64.4 °F 47.8 °F 55% 29.93 in 10.0 mi Calm Calm - N/A   Clear
8:15 AM 67.1 °F 45.7 °F 46% 29.93 in 10.0 mi WNW 6.9 mph - N/A   Clear
8:35 AM 70.0 °F 42.4 °F 37% 29.93 in 10.0 mi WNW 6.9 mph - N/A   Clear
8:55 AM 73.6 °F 40.8 °F 31% 29.93 in 10.0 mi West 6.9 mph - N/A   Clear
9:15 AM 74.5 °F 38.7 °F 27% 29.93 in 10.0 mi WNW 6.9 mph - N/A   Clear
9:35 AM 77.0 °F 37.8 °F 24% 29.94 in 10.0 mi WNW 8.1 mph - N/A   Clear
9:55 AM 78.1 °F 35.2 °F 21% 29.94 in 10.0 mi NW 8.1 mph - N/A   Clear
10:15 AM 78.6 °F 33.4 °F 19% 29.94 in 10.0 mi NW 9.2 mph - N/A   Clear
10:35 AM 79.5 °F 37.0 °F 22% 29.94 in 10.0 mi NW 5.8 mph - N/A   Clear
11:15 AM 81.3 °F 35.6 °F 19% 29.94 in 10.0 mi NNW 10.4 mph - N/A   Clear
11:35 AM 81.5 °F 34.3 °F 18% 29.94 in 10.0 mi NW 6.9 mph 16.1 mph N/A   Clear
11:55 AM 82.8 °F 35.6 °F 18% 29.94 in 7.0 mi NW 4.6 mph - N/A   Clear
12:15 PM 83.5 °F 34.5 °F 17% 29.95 in 10.0 mi WNW 4.6 mph - N/A   Clear
12:35 PM 83.8 °F 33.4 °F 16% 29.94 in 10.0 mi Calm Calm - N/A   Clear
12:55 PM 84.7 °F 34.0 °F 16% 29.93 in 7.0 mi NNE 4.6 mph - N/A   Clear
1:10 PM 84.4 °F 33.1 °F 16% 29.93 in 7.0 mi Calm Calm - N/A   Mostly Cloudy
1:35 PM 85.8 °F 33.4 °F 15% 29.91 in 10.0 mi West 4.6 mph - N/A   Scattered Clouds
1:55 PM 85.3 °F 32.0 °F 15% 29.91 in 10.0 mi WNW 4.6 mph - N/A   Scattered Clouds
2:15 PM 87.8 °F 32.0 °F 14% 29.91 in 10.0 mi WSW 9.2 mph - N/A   Scattered Clouds
2:55 PM 89.1 °F 30.6 °F 12% 29.89 in 10.0 mi West 6.9 mph - N/A   Clear
3:15 PM 90.0 °F 31.3 °F 12% 29.88 in 10.0 mi NW 5.8 mph - N/A   Clear
3:35 PM 88.3 °F 28.4 °F 12% 29.88 in 10.0 mi West 8.1 mph - N/A   Clear
3:55 PM 89.2 °F 29.5 °F 12% 29.86 in 10.0 mi WSW 8.1 mph - N/A   Scattered Clouds
4:15 PM 88.3 °F 28.4 °F 12% 29.85 in 10.0 mi SW 4.6 mph - N/A   Mostly Cloudy
4:35 PM 90.3 °F 27.9 °F 11% 29.84 in 10.0 mi West 9.2 mph - N/A   Mostly Cloudy
4:55 PM 90.5 °F 27.0 °F 10% 29.82 in 10.0 mi WSW 5.8 mph - N/A   Scattered Clouds
5:15 PM 90.9 °F 28.6 °F 11% 29.81 in 10.0 mi Calm Calm - N/A   Clear
5:35 PM 90.5 °F 28.9 °F 11% 29.81 in 10.0 mi Calm Calm - N/A   Clear
5:55 PM 90.9 °F 28.4 °F 11% 29.81 in 10.0 mi SSW 6.9 mph - N/A   Clear
6:15 PM 90.5 °F 25.9 °F 10% 29.80 in 10.0 mi SW 3.5 mph - N/A   Clear
6:35 PM 90.5 °F 27.3 °F 10% 29.79 in 10.0 mi West 9.2 mph - N/A   Clear
6:55 PM 89.8 °F 27.5 °F 11% 29.79 in 10.0 mi West 8.1 mph - N/A   Clear
7:15 PM 89.1 °F 27.3 °F 11% 29.78 in 10.0 mi West 5.8 mph - N/A   Clear
7:35 PM 87.6 °F 28.9 °F 12% 29.79 in 10.0 mi Calm Calm - N/A   Clear
7:55 PM 86.5 °F 29.7 °F 13% 29.79 in 10.0 mi Calm Calm - N/A   Clear
8:15 PM 84.6 °F 30.0 °F 14% 29.79 in 10.0 mi Calm Calm - N/A   Clear
8:35 PM 82.2 °F 30.9 °F 16% 29.80 in 7.0 mi SE 10.4 mph - N/A   Clear
8:55 PM 81.0 °F 37.9 °F 21% 29.81 in 10.0 mi SSE 10.4 mph - N/A   Clear
9:15 PM 80.4 °F 38.7 °F 22% 29.82 in 10.0 mi SSE 10.4 mph - N/A   Clear
9:35 PM 79.2 °F 40.6 °F 25% 29.83 in 10.0 mi SSE 9.2 mph - N/A   Clear
9:55 PM 78.1 °F 42.3 °F 28% 29.83 in 10.0 mi SSE 9.2 mph - N/A   Clear
10:10 PM 77.0 °F 42.8 °F 29% 29.84 in 10.0 mi SSE 10.4 mph - N/A   Clear
10:35 PM 76.3 °F 43.5 °F 31% 29.84 in 10.0 mi SSE 10.4 mph - N/A   Clear
10:55 PM 75.4 °F 43.2 °F 32% 29.85 in 10.0 mi SSE 11.5 mph - N/A   Clear
11:15 PM 75.2 °F 42.6 °F 31% 29.85 in 10.0 mi SSE 10.4 mph - N/A   Clear
11:35 PM 74.5 °F 42.8 °F 32% 29.85 in 10.0 mi SSE 10.4 mph - N/A   Clear
11:55 PM 73.4 °F 45.7 °F 37% 29.85 in 10.0 mi SSE 10.4 mph - N/A   Clear